"2010-06-23 00:00:00",225100,4.391,133.2,2.122,0.234,22.23,110.2528,25.54,26.26,24.24,0,111.3,13.11,26.39,95.2
"2010-06-23 00:00:30",225101,4.115,129.9,1.224,0.208,22.26,110.2758,25.6,26.32,23.53,0,111.3,13.11,26.44,91.9
"2010-06-23 00:01:00",225102,3.949,129.1,1.953,0.141,22.27,110.3036,25.67,26.38,22.05,0,111.3,13.11,26.52,91.1
"2010-06-23 00:01:30",225103,4.19,132.7,1.999,0.213,22.19,110.3288,25.74,26.42,22.33,0,111.3,13.11,26.58,94.7
"2010-06-23 00:02:00",225104,4.197,134.4,3.724,0.247,22.17,110.3437,25.78,26.49,22.85,0,111.3,13.11,26.62,96.4
"2010-06-23 00:02:30",225105,4.109,136.4,3.052,0.232,22.16,110.3695,25.84,26.54,22.57,0,111.3,13.11,26.69,98.4
"2010-06-23 00:03:00",225106,5.138,130.2,2.043,0.233,21.9,110.3704,25.85,26.59,26.88,0,111.3,13.1,26.69,92.2
"2010-06-23 00:03:30",225107,4.778,134.3,1.914,0.169,22.01,110.3704,25.85,26.61,26.3,0,111.3,13.1,26.69,96.3
"2010-06-23 00:04:00",225108,5.494,130.6,0.846,0.261,21.97,110.3653,25.83,26.62,27.67,0,111.3,13.1,26.68,92.6
"2010-06-23 00:04:30",225109,5.495,130.2,0.842,0.107,22.04,110.3403,25.77,26.63,29.26,0,111.3,13.1,26.61,92.2
"2010-06-23 00:05:00",225110,5.585,129.1,1.266,0.073,22.09,110.3364,25.76,26.61,29.05,0,111.3,13.1,26.60,91.1
"2010-06-23 00:05:30",225111,5.498,124.2,2.572,0.095,22,110.3159,25.71,26.59,30.14,0,111.3,13.1,26.55,86.2
"2010-06-23 00:06:00",225112,5.194,127.8,1.497,0.157,22.2,110.303,25.67,26.58,28.26,0,111.3,13.1,26.51,89.8
"2010-06-23 00:06:30",225113,5.385,128.4,1.189,0.105,22.08,110.3011,25.67,26.57,29.25,0,111.3,13.1,26.51,90.4
"2010-06-23 00:07:00",225114,5.506,127.7,1.435,0.196,22.03,110.2868,25.63,26.54,31.24,0,111.3,13.1,26.47,89.7
"2010-06-23 00:07:30",225115,5.14,131.8,1.527,0.184,22.1,110.2687,25.59,26.53,30.54,0,111.3,13.1,26.43,93.8
"2010-06-23 00:08:00",225116,4.762,123.5,3.823,0.191,22.04,110.2592,25.56,26.49,32.51,0,111.3,13.1,26.40,85.5
"2010-06-23 00:08:30",225117,5.714,116.4,4.729,0.52,21.89,110.2371,25.5,26.47,34.86,0,111.3,13.1,26.34,78.4
"2010-06-23 00:09:00",225118,5.747,114.5,4.741,0.308,21.87,110.2146,25.45,26.42,38.27,0,111.3,13.1,26.29,76.5
"2010-06-23 00:09:30",225119,5.489,118.8,2.742,0.302,22,110.1876,25.38,26.38,36.9,0,111.3,13.1,26.22,80.8
"2010-06-23 00:10:00",225120,5.75,121.1,2.495,0.383,21.9,110.1665,25.32,26.32,38.25,0,111.3,13.1,26.16,83.1
"2010-06-23 00:10:30",225121,5.507,116.9,4.435,0.497,21.95,110.1377,25.25,26.26,39.14,0,111.3,13.1,26.09,78.9
"2010-06-23 00:11:00",225122,5.938,112.5,3.726,0.375,22,110.1058,25.17,26.2,38.65,0,111.3,13.1,26.01,74.5
"2010-06-23 00:11:30",225123,5.87,110.7,1.699,0.168,21.99,110.0866,25.12,26.12,37.58,0,111.3,13.1,25.96,72.7
"2010-06-23 00:12:00",225124,5.888,108.5,3.516,0.222,22.06,110.0672,25.07,26.06,37.44,0,111.3,13.1,25.91,70.5
"2010-06-23 00:12:30",225125,5.552,107.2,4.095,0.276,22.03,110.0517,25.03,26.02,37.67,0,111.3,13.1,25.87,69.2
"2010-06-23 00:13:00",225126,5.277,107.3,3.979,0.348,22.01,110.0347,24.98,25.96,37.05,0,111.3,13.1,25.82,69.3
"2010-06-23 00:13:30",225127,5.061,110.6,8.01,0.392,22.07,110.0321,24.98,25.92,35.7,0,111.3,13.1,25.82,72.6
"2010-06-23 00:14:00",225128,4.685,116.9,2.43,0.299,22.16,110.0331,24.98,25.92,32.97,0,111.3,13.1,25.82,78.9
"2010-06-23 00:14:30",225129,5.363,112.4,4.105,0.558,22.15,110.0337,24.98,25.9,35.01,0,111.3,13.1,25.82,74.4
"2010-06-23 00:15:00",225130,4.635,113.3,4.886,0.367,22.15,110.0337,24.98,25.89,37.41,0,111.3,13.1,25.82,75.3
"2010-06-23 00:15:30",225131,4.321,123.1,1.166,0.1,22.29,110.0337,24.98,25.88,32.39,0,111.3,13.1,25.82,85.1
"2010-06-23 00:16:00",225132,4.597,118.2,4.529,0.253,22.15,110.0342,24.98,25.87,32.96,0,111.3,13.1,25.82,80.2
"2010-06-23 00:16:30",225133,4.857,123.9,2.334,0.256,22.14,110.0401,25,25.89,31.92,0,111.3,13.1,25.84,85.9
"2010-06-23 00:17:00",225134,4.895,117.1,3.979,0.144,22.1,110.0519,25.03,25.89,33.17,0,111.3,13.1,25.87,79.1
"2010-06-23 00:17:30",225135,4.66,116.5,5.811,0.341,21.95,110.0491,25.02,25.91,35.55,0,111.3,13.1,25.86,78.5
"2010-06-23 00:18:00",225136,4.929,114.8,3.653,0.201,21.96,110.0463,25.01,25.9,34.84,0,111.3,13.1,25.85,76.8
"2010-06-23 00:18:30",225137,4.868,112.4,2.606,0.252,21.89,110.039,24.99,25.9,39.65,0,111.3,13.1,25.83,74.4
"2010-06-23 00:19:00",225138,4.558,114.9,2.858,0.264,21.92,110.0337,24.98,25.89,38.97,0,111.3,13.1,25.82,76.9
"2010-06-23 00:19:30",225139,4.443,115.4,2.637,0.284,21.95,110.0244,24.96,25.86,39.2,0,111.3,13.1,25.80,77.4
"2010-06-23 00:20:00",225140,4.651,119.2,3.253,0.238,21.98,110.0076,24.91,25.84,36.42,0,111.3,13.1,25.75,81.2
"2010-06-23 00:20:30",225141,4.711,113.9,3.779,0.259,21.93,110.0003,24.9,25.82,38.52,0,111.3,13.1,25.73,75.9
"2010-06-23 00:21:00",225142,4.52,116.6,3.032,0.397,22.02,110,24.89,25.82,38.56,0,111.3,13.1,25.73,78.6
"2010-06-23 00:21:30",225143,4.123,118.3,1.814,0.175,22.01,110,24.89,25.79,34,0,111.3,13.1,25.73,80.3
"2010-06-23 00:22:00",225144,4.122,119.1,1.047,0.11,22.1,110,24.89,25.78,31.68,0,111.3,13.1,25.73,81.1
"2010-06-23 00:22:30",225145,4.171,120.3,1.092,0.109,22.18,110.0194,24.94,25.78,29.01,0,111.3,13.1,25.78,82.3
"2010-06-23 00:23:00",225146,3.966,119.2,3.202,0.263,22.07,110.0396,25,25.82,30.15,0,111.3,13.1,25.84,81.2
"2010-06-23 00:23:30",225147,4.063,123.8,0.952,0.087,22.32,110.0651,25.06,25.84,28.03,0,111.3,13.1,25.90,85.8
"2010-06-23 00:24:00",225148,3.849,123.1,1.342,0.107,22.33,110.0937,25.14,25.88,24.7,0,111.3,13.1,25.97,85.1
"2010-06-23 00:24:30",225149,3.536,123.2,1.762,0.11,22.31,110.1355,25.24,25.95,23.96,0,111.3,13.1,26.08,85.2
"2010-06-23 00:25:00",225150,3.362,125.8,0.888,0.108,22.24,110.177,25.35,26.03,23.79,0,111.3,13.1,26.19,87.8
"2010-06-23 00:25:30",225151,3.347,128.8,1.598,0.066,22.29,110.2146,25.45,26.12,22.95,0,111.3,13.1,26.29,90.8
"2010-06-23 00:26:00",225152,3.451,127.8,1.287,0.091,22.26,110.2489,25.53,26.19,22.22,0,111.3,13.1,26.38,89.8
"2010-06-23 00:26:30",225153,3.436,128.3,1.04,0.125,22.2,110.2811,25.62,26.29,22.49,0,111.3,13.1,26.46,90.3
"2010-06-23 00:27:00",225154,3.419,129,1.289,0.073,22.21,110.3055,25.68,26.34,22.23,0,111.3,13.1,26.52,91.0
"2010-06-23 00:27:30",225155,3.403,129.1,1.489,0.091,22.17,110.33,25.74,26.41,22.41,0,111.3,13.1,26.58,91.1
"2010-06-23 00:28:00",225156,3.569,130.3,1.188,0.168,22.1,110.3395,25.77,26.46,22.81,0,111.3,13.1,26.61,92.3
"2010-06-23 00:28:30",225157,3.8,130,1.007,0.077,22.12,110.3577,25.81,26.51,22.7,0,111.3,13.1,26.66,92.0
"2010-06-23 00:29:00",225158,3.801,129.7,1.168,0.109,22.17,110.3698,25.84,26.55,21.91,0,111.3,13.1,26.69,91.7
"2010-06-23 00:29:30",225159,3.837,131.6,1.044,0.07,22.19,110.3742,25.86,26.59,21.44,0,111.3,13.1,26.70,93.6
"2010-06-23 00:30:00",225160,3.772,136.1,2.289,0.086,22.25,110.3967,25.91,26.62,21.07,0,111.3,13.1,26.76,98.1
"2010-06-23 00:30:30",225161,3.408,134.1,2.384,0.169,22.23,110.4043,25.93,26.66,19.96,0,111.3,13.1,26.78,96.1
"2010-06-23 00:31:00",225162,2.981,125.8,2.3,0.174,22.31,110.4281,25.99,26.7,19.04,0,111.3,13.1,26.84,87.8
"2010-06-23 00:31:30",225163,2.853,127.7,2.967,0.155,22.27,110.4407,26.03,26.76,18.59,0,111.3,13.1,26.87,89.7
"2010-06-23 00:32:00",225164,3.485,132.2,2.652,0.152,22.09,110.4656,26.09,26.81,19.44,0,111.3,13.1,26.93,94.2
"2010-06-23 00:32:30",225165,3.052,129.6,3.677,0.249,22.17,110.465,26.09,26.85,19.2,0,111.3,13.1,26.93,91.6
"2010-06-23 00:33:00",225166,2.712,125.2,3.242,0.185,22.17,110.4804,26.13,26.88,18.82,0,111.3,13.1,26.97,87.2
"2010-06-23 00:33:30",225167,2.628,123,4.742,0.087,22.1,110.4935,26.16,26.91,18.83,0,111.3,13.1,27.01,85.0
"2010-06-23 00:34:00",225168,2.753,123.3,5.043,0.211,22.09,110.4957,26.17,26.93,19.29,0,111.3,13.1,27.01,85.3
"2010-06-23 00:34:30",225169,2.617,120.7,3.837,0.222,22.05,110.4957,26.17,26.95,19.18,0,111.3,13.1,27.01,82.7
"2010-06-23 00:35:00",225170,2.724,111.8,2.217,0.164,22.11,110.4957,26.17,26.99,19.15,0,111.3,13.1,27.01,73.8
"2010-06-23 00:35:30",225171,2.505,123.7,6.486,0.353,22.01,110.4957,26.17,26.99,18.73,0,111.3,13.1,27.01,85.7
"2010-06-23 00:36:00",225172,2.38,119.9,5.338,0.163,21.92,110.4966,26.17,27,20.72,0,111.3,13.1,27.01,81.9
"2010-06-23 00:36:30",225173,2.553,121.2,3.969,0.15,21.76,110.4862,26.14,27.01,25.9,0,111.3,13.1,26.99,83.2
"2010-06-23 00:37:00",225174,2.842,116,2.367,0.052,21.9,110.459,26.07,26.97,21.87,0,111.3,13.1,26.92,78.0
"2010-06-23 00:37:30",225175,3.435,113.3,2.973,0.374,21.61,110.4399,26.03,26.95,28.95,0,111.3,13.09,26.87,75.3
"2010-06-23 00:38:00",225176,3.641,110.2,2.524,0.309,21.57,110.3799,25.87,26.88,34,0,111.3,13.1,26.71,72.2
"2010-06-23 00:38:30",225177,3.507,114.4,3.668,0.267,21.61,110.3165,25.71,26.78,33.37,0,111.3,13.1,26.55,76.4
"2010-06-23 00:39:00",225178,3.798,112.6,1.918,0.116,21.57,110.2645,25.57,26.7,37.05,0,111.3,13.09,26.42,74.6
"2010-06-23 00:39:30",225179,3.706,112.9,2.292,0.192,21.63,110.2173,25.45,26.59,38.08,0,111.3,13.09,26.29,74.9
"2010-06-23 00:40:00",225180,3.742,115.6,2.635,0.173,21.7,110.1707,25.33,26.47,38.16,0,111.3,13.09,26.17,77.6
"2010-06-23 00:40:30",225181,3.222,117.5,3.358,0.234,22.28,110.1368,25.25,26.36,27.19,0,111.3,13.09,26.09,79.5
"2010-06-23 00:41:00",225182,2.947,114.4,3.794,0.451,22.4,110.1565,25.3,26.31,23.6,0,111.3,13.09,26.14,76.4
"2010-06-23 00:41:30",225183,2.482,119,3.56,0.324,22.3,110.1926,25.39,26.32,22.34,0,111.3,13.09,26.23,81.0
"2010-06-23 00:42:00",225184,2.597,114.6,4.948,0.195,22.27,110.2257,25.47,26.35,21.42,0,111.3,13.09,26.32,76.6
"2010-06-23 00:42:30",225185,2.523,112.1,6.839,0.345,22.19,110.2609,25.56,26.41,22.38,0,111.3,13.09,26.41,74.1
"2010-06-23 00:43:00",225186,2.188,98,5.449,0.251,22.22,110.2894,25.64,26.47,21.05,0,111.3,13.1,26.48,60.0
"2010-06-23 00:43:30",225187,2.546,109.6,7.207,0.214,21.96,110.3109,25.69,26.52,24.45,0,111.3,13.1,26.54,71.6
"2010-06-23 00:44:00",225188,2.589,107.5,6.322,0.175,22.02,110.3107,25.69,26.55,23.59,0,111.3,13.1,26.53,69.5
"2010-06-23 00:44:30",225189,1.782,112.1,3.132,0.283,22,110.3141,25.7,26.57,24.14,0,111.3,13.1,26.54,74.1
"2010-06-23 00:45:00",225190,1.446,95.9,7.026,0.319,22.05,110.3197,25.72,26.58,22.41,0,111.3,13.1,26.56,57.9
"2010-06-23 00:45:30",225191,1.637,58.21,6.13,0.327,22.23,110.3457,25.78,26.61,19.67,0,111.3,13.1,26.62,20.2
"2010-06-23 00:46:00",225192,2.325,68.21,11.69,0.258,22.26,110.3756,25.86,26.65,18.98,0,111.3,13.1,26.70,30.2
"2010-06-23 00:46:30",225193,2.667,92.5,7.612,0.275,22.21,110.4053,25.94,26.7,18.98,0,111.3,13.1,26.78,54.5
"2010-06-23 00:47:00",225194,2.406,121.1,10.93,0.336,22.14,110.4162,25.96,26.74,19.76,0,111.3,13.1,26.81,83.1
"2010-06-23 00:47:30",225195,1.586,109.5,17.03,0.665,21.95,110.4178,25.97,26.77,22.13,0,111.3,13.1,26.81,71.5
"2010-06-23 00:48:00",225196,1.492,126,13.49,0.251,22.1,110.4205,25.98,26.8,19.22,0,111.3,13.1,26.82,88.0
"2010-06-23 00:48:30",225197,2.158,100,13.58,0.327,22,110.4339,26.01,26.8,20.74,0,111.3,13.1,26.85,62.0
"2010-06-23 00:49:00",225198,2.219,97.7,12.3,0.256,22.13,110.4342,26.01,26.83,19.13,0,111.3,13.1,26.85,59.7
"2010-06-23 00:49:30",225199,2.711,105.6,5.376,0.139,21.95,110.437,26.02,26.85,21.82,0,111.3,13.1,26.86,67.6
"2010-06-23 00:50:00",225200,2.612,105.6,1.374,0.1,21.91,110.4305,26,26.86,23.9,0,111.3,13.1,26.84,67.6
"2010-06-23 00:50:30",225201,2.346,94.3,4.772,0.144,21.86,110.4047,25.93,26.86,24.07,0,111.3,13.1,26.78,56.3
"2010-06-23 00:51:00",225202,2.685,98.8,5.921,0.256,21.82,110.384,25.88,26.81,25.03,0,111.3,13.1,26.72,60.8
"2010-06-23 00:51:30",225203,2.603,97.8,5.874,0.359,21.87,110.3599,25.82,26.77,25.3,0,111.3,13.1,26.66,59.8
"2010-06-23 00:52:00",225204,2.301,93.5,3.669,0.228,21.9,110.3349,25.76,26.72,24.89,0,111.3,13.1,26.60,55.5
"2010-06-23 00:52:30",225205,2.773,105.9,3.199,0.144,21.84,110.3178,25.71,26.68,26.43,0,111.3,13.1,26.55,67.9
"2010-06-23 00:53:00",225206,2.271,107.9,1.874,0.158,21.93,110.2996,25.66,26.65,25.92,0,111.3,13.1,26.51,69.9
"2010-06-23 00:53:30",225207,2.084,103.7,2.062,0.082,21.77,110.2872,25.63,26.63,27.03,0,111.3,13.1,26.47,65.7
"2010-06-23 00:54:00",225208,2.212,92.4,5.956,0.161,21.77,110.267,25.58,26.58,26.92,0,111.3,13.1,26.42,54.4
"2010-06-23 00:54:30",225209,2.132,88.7,2.539,0.124,21.93,110.2642,25.57,26.54,25.81,0,111.3,13.1,26.41,50.7
"2010-06-23 00:55:00",225210,1.807,86.2,3.442,0.077,22.03,110.2645,25.57,26.53,25.09,0,111.3,13.09,26.42,48.2
"2010-06-23 00:55:30",225211,1.719,71.74,6.666,0.096,22.05,110.2656,25.58,26.51,24.91,0,111.3,13.09,26.42,33.7
"2010-06-23 00:56:00",225212,1.865,47.55,6.723,0.182,22.21,110.2766,25.61,26.51,21.96,0,111.3,13.09,26.45,9.5
"2010-06-23 00:56:30",225213,1.514,41.38,6.665,0.126,22.3,110.3125,25.7,26.54,21.23,0,111.3,13.09,26.54,3.4
"2010-06-23 00:57:00",225214,1.671,30.15,3.046,0.27,22.22,110.3565,25.81,26.59,20.44,0,111.3,13.09,26.65,352.1
"2010-06-23 00:57:30",225215,1.556,351.4,27.42,0.178,22.29,110.3969,25.91,26.68,19.63,0,111.3,13.09,26.76,313.4
"2010-06-23 00:58:00",225216,1.535,306.7,23.13,0.329,22.28,110.4249,25.99,26.73,18.19,0,111.3,13.09,26.83,268.7
"2010-06-23 00:58:30",225217,0.482,254.8,41.83,0.425,22.25,110.4519,26.06,26.78,17.78,0,111.3,13.09,26.90,216.8
"2010-06-23 00:59:00",225218,0.499,224.1,44.84,0.428,22.16,110.4704,26.1,26.83,17.89,0,111.3,13.09,26.95,186.1
"2010-06-23 00:59:30",225219,0.702,157.9,37.42,0.254,22.11,110.4897,26.15,26.88,17.86,0,111.3,13.09,27.00,119.9
"2010-06-23 01:00:00",225220,0.79,68.6,23.99,0.128,22.09,110.5015,26.18,26.93,18.05,0,111.3,13.09,27.03,30.6
"2010-06-23 01:00:30",225221,2.254,15.99,19.17,1.124,22.19,110.5108,26.21,26.95,18.02,0,111.3,13.09,27.05,338.0
"2010-06-23 01:01:00",225222,3.763,13.34,37.94,1.007,22.2,110.5349,26.27,26.98,18.15,0,111.3,13.09,27.11,335.3
"2010-06-23 01:01:30",225223,1.47,14.1,30.87,0.618,22.22,110.5352,26.27,27.03,18.35,0,111.3,13.09,27.11,336.1
"2010-06-23 01:02:00",225224,2.068,51.29,27.35,0.84,22.26,110.5405,26.28,27.06,18.42,0,111.3,13.09,27.13,13.3
"2010-06-23 01:02:30",225225,2.681,84,12.78,0.825,22.29,110.5402,26.28,27.08,18.29,0,111.3,13.09,27.13,46.0
"2010-06-23 01:03:00",225226,4.106,69.31,9.04,0.375,22.33,110.536,26.27,27.09,18.3,0,111.3,13.09,27.12,31.3
"2010-06-23 01:03:30",225227,4.961,51.05,5.677,0.785,22.35,110.5354,26.27,27.09,18.46,0,111.3,13.09,27.11,13.0
"2010-06-23 01:04:00",225228,4.708,48.99,11.28,0.661,22.4,110.5352,26.27,27.12,18.85,0,111.3,13.09,27.11,11.0
"2010-06-23 01:04:30",225229,2.935,83.7,20.85,0.971,22.48,110.5343,26.27,27.11,18.98,0,111.3,13.09,27.11,45.7
"2010-06-23 01:05:00",225230,2.286,71.84,21.58,0.606,22.38,110.5082,26.2,27.09,19.64,0,111.3,13.09,27.04,33.8
"2010-06-23 01:05:30",225231,2.636,58.14,6.535,0.343,22.36,110.4987,26.18,27.07,19.74,0,111.3,13.09,27.02,20.1
"2010-06-23 01:06:00",225232,2.694,64.22,4.97,0.238,22.34,110.4858,26.14,27.05,19.52,0,111.3,13.09,26.99,26.2
"2010-06-23 01:06:30",225233,3.182,65.05,9.65,0.173,22.25,110.4698,26.1,27.02,21.51,0,111.3,13.09,26.94,27.1
"2010-06-23 01:07:00",225234,3.119,68.61,5.566,0.261,22.32,110.458,26.07,27,21.38,0,111.3,13.09,26.91,30.6
"2010-06-23 01:07:30",225235,3.141,60.66,8.25,0.511,22.36,110.4432,26.03,26.98,20.55,0,111.3,13.09,26.88,22.7
"2010-06-23 01:08:00",225236,2.445,70.36,8.87,0.647,22.37,110.4401,26.03,26.94,20.91,0,111.3,13.09,26.87,32.4
"2010-06-23 01:08:30",225237,1.773,70.22,17.7,0.398,22.29,110.4345,26.01,26.93,21.27,0,111.3,13.09,26.85,32.2
"2010-06-23 01:09:00",225238,2.228,17.66,12.46,0.339,22.35,110.4348,26.01,26.9,21.92,0,111.3,13.09,26.85,339.7
"2010-06-23 01:09:30",225239,2.448,3.617,14.19,0.723,22.25,110.4426,26.03,26.94,22.02,0,111.3,13.09,26.87,325.6
"2010-06-23 01:10:00",225240,4.359,20.45,4.547,0.317,22.27,110.4549,26.06,26.94,21.78,0,111.3,13.09,26.91,342.5
"2010-06-23 01:10:30",225241,4.007,12.76,8.09,0.726,22.32,110.4614,26.08,26.94,21.97,0,111.3,13.09,26.92,334.8
"2010-06-23 01:11:00",225242,2.976,22.43,13.34,1.174,22.35,110.4614,26.08,26.95,21.74,0,111.3,13.09,26.92,344.4
"2010-06-23 01:11:30",225243,3.123,18.05,9.44,0.655,22.36,110.4636,26.09,26.94,21.22,0,111.3,13.09,26.93,340.0
"2010-06-23 01:12:00",225244,4.497,18.08,10.28,0.836,22.38,110.4642,26.09,26.96,21.92,0,111.3,13.09,26.93,340.1
"2010-06-23 01:12:30",225245,4.04,19.12,5.806,0.82,22.45,110.4656,26.09,26.95,22.07,0,111.3,13.09,26.93,341.1
"2010-06-23 01:13:00",225246,3.309,28.9,7.036,0.738,22.45,110.4594,26.08,26.94,22.23,0,111.3,13.09,26.92,350.9
"2010-06-23 01:13:30",225247,2.797,13.12,19.32,0.867,22.44,110.4404,26.03,26.93,22.58,0,111.3,13.09,26.87,335.1
"2010-06-23 01:14:00",225248,3.291,45.96,7.68,0.766,22.34,110.4336,26.01,26.92,23.11,0,111.3,13.09,26.85,8.0
"2010-06-23 01:14:30",225249,2.48,21.27,7.912,0.79,22.45,110.4168,25.97,26.89,23.32,0,111.3,13.09,26.81,343.3
"2010-06-23 01:15:00",225250,1.595,10.91,12.88,0.578,22.44,110.4084,25.94,26.88,24.52,0,111.3,13.08,26.79,332.9
"2010-06-23 01:15:30",225251,1.732,359.8,9.15,0.642,22.47,110.4132,25.96,26.87,23.97,0,111.3,13.09,26.80,321.8
"2010-06-23 01:16:00",225252,3.429,0.727,6.944,0.683,22.37,110.4146,25.96,26.88,23.7,0,111.3,13.08,26.80,322.7
"2010-06-23 01:16:30",225253,4.99,17.87,14.81,0.931,22.32,110.4112,25.95,26.87,23.41,0,111.3,13.09,26.79,339.9
"2010-06-23 01:17:00",225254,5.918,25.13,2.831,0.336,22.46,110.4101,25.95,26.86,19.29,0,111.3,13.09,26.79,347.1
"2010-06-23 01:17:30",225255,4.272,14.96,5.976,0.287,22.48,110.4339,26.01,26.88,17.56,0,111.3,13.09,26.85,337.0
"2010-06-23 01:18:00",225256,4.727,352.7,5.547,0.433,22.48,110.4513,26.05,26.91,18.26,0,111.3,13.09,26.90,314.7
"2010-06-23 01:18:30",225257,4.911,340.7,12.32,0.436,22.37,110.4479,26.05,26.91,21.67,0,111.3,13.09,26.89,302.7
"2010-06-23 01:19:00",225258,4.055,330,4.793,0.283,22.37,110.43,26,26.91,24.07,0,111.3,13.09,26.84,292.0
"2010-06-23 01:19:30",225259,3.815,331.4,9.42,0.33,22.35,110.4025,25.93,26.88,24.7,0,111.3,13.09,26.77,293.4
"2010-06-23 01:20:00",225260,4.446,340.7,7.496,0.701,22.41,110.3739,25.86,26.83,23.38,0,111.3,13.09,26.70,302.7
"2010-06-23 01:20:30",225261,4.531,13.63,8.71,0.716,22.59,110.3747,25.86,26.8,19.94,0,111.3,13.09,26.70,335.6
"2010-06-23 01:21:00",225262,3.321,9.04,10.48,0.619,22.56,110.3994,25.92,26.83,21.13,0,111.3,13.09,26.76,331.0
"2010-06-23 01:21:30",225263,3.257,17.15,7.635,0.424,22.39,110.4005,25.92,26.84,21.8,0,111.3,13.09,26.77,339.1
"2010-06-23 01:22:00",225264,3.578,13.46,6.932,0.716,22.4,110.4005,25.92,26.85,22.41,0,111.3,13.09,26.77,335.5
"2010-06-23 01:22:30",225265,4.301,18.61,7.93,1.18,22.4,110.4015,25.93,26.82,22.39,0,111.3,13.09,26.77,340.6
"2010-06-23 01:23:00",225266,2.341,17.45,14.73,0.471,22.42,110.4036,25.93,26.83,21.06,0,111.3,13.09,26.77,339.5
"2010-06-23 01:23:30",225267,2.134,335.5,7.556,0.295,22.48,110.4043,25.93,26.82,18.62,0,111.3,13.09,26.78,297.5
"2010-06-23 01:24:00",225268,1.903,334.6,7.931,0.324,22.46,110.4092,25.95,26.84,17.88,0,111.3,13.09,26.79,296.6
"2010-06-23 01:24:30",225269,2.277,343.4,12.89,0.445,22.38,110.4163,25.96,26.84,18.53,0,111.3,13.09,26.81,305.4
"2010-06-23 01:25:00",225270,3.443,331.7,5.319,0.592,22.31,110.4226,25.98,26.85,19.84,0,111.3,13.09,26.82,293.7
"2010-06-23 01:25:30",225271,2.536,327.7,9.84,0.636,22.35,110.4139,25.96,26.84,20.25,0,111.3,13.09,26.80,289.7
"2010-06-23 01:26:00",225272,2.719,340.1,13.06,1.337,22.26,110.4102,25.95,26.83,21.57,0,111.3,13.09,26.79,302.1
"2010-06-23 01:26:30",225273,3.97,337.4,5.737,0.362,22.28,110.3883,25.89,26.81,23.54,0,111.3,13.09,26.73,299.4
"2010-06-23 01:27:00",225274,2.546,342.8,9.7,0.961,22.4,110.3743,25.86,26.78,23.35,0,111.3,13.09,26.70,304.8
"2010-06-23 01:27:30",225275,2.346,352.5,7.649,0.844,22.45,110.3524,25.8,26.76,23.7,0,111.3,13.09,26.64,314.5
"2010-06-23 01:28:00",225276,2.556,17.2,11.51,0.465,22.34,110.3492,25.79,26.75,22.73,0,111.3,13.1,26.63,339.2
"2010-06-23 01:28:30",225277,1.88,30.88,9,0.601,22.32,110.3499,25.79,26.73,22.57,0,111.3,13.1,26.64,352.9
"2010-06-23 01:29:00",225278,2.252,18.41,14.69,0.707,22.38,110.3512,25.8,26.7,23.03,0,111.3,13.09,26.64,340.4
"2010-06-23 01:29:30",225279,3.293,14.78,6.67,0.533,22.44,110.3549,25.81,26.7,23.87,0,111.3,13.09,26.65,336.8
"2010-06-23 01:30:00",225280,2.678,1.379,5.125,0.661,22.52,110.3657,25.83,26.72,24.14,0,111.3,13.09,26.68,323.4
"2010-06-23 01:30:30",225281,4.128,1.948,7.788,0.686,22.49,110.3779,25.87,26.72,23.74,0,111.3,13.09,26.71,323.9
"2010-06-23 01:31:00",225282,5.01,359.9,4.512,0.38,22.49,110.3775,25.86,26.73,23.77,0,111.3,13.09,26.71,321.9
"2010-06-23 01:31:30",225283,2.824,2.75,9.5,0.94,22.56,110.3694,25.84,26.72,24.23,0,111.3,13.09,26.69,324.8
"2010-06-23 01:32:00",225284,3.855,351.7,4.866,0.669,22.52,110.3658,25.83,26.72,24.87,0,111.3,13.09,26.68,313.7
"2010-06-23 01:32:30",225285,4.37,0.404,9.47,0.598,22.56,110.3611,25.82,26.7,24.53,0,111.3,13.09,26.66,322.4
"2010-06-23 01:33:00",225286,4.411,13.89,5.279,0.766,22.55,110.3608,25.82,26.68,23.63,0,111.3,13.09,26.66,335.9
"2010-06-23 01:33:30",225287,4.305,12.51,5.731,0.767,22.59,110.3611,25.82,26.68,22.45,0,111.3,13.09,26.66,334.5
"2010-06-23 01:34:00",225288,2.787,13.14,8.7,0.769,22.53,110.3611,25.82,26.68,24.38,0,111.3,13.09,26.66,335.1
"2010-06-23 01:34:30",225289,2.687,8.6,6.428,0.709,22.53,110.3614,25.82,26.69,24.28,0,111.3,13.09,26.67,330.6
"2010-06-23 01:35:00",225290,3.156,5.417,5.883,0.737,22.61,110.362,25.82,26.69,22.23,0,111.3,13.09,26.67,327.4
"2010-06-23 01:35:30",225291,3.06,13.1,3.758,0.488,22.6,110.3744,25.86,26.73,21.91,0,111.3,13.1,26.70,335.1
"2010-06-23 01:36:00",225292,2.589,3.857,5.506,0.352,22.59,110.3937,25.91,26.72,22.69,0,111.3,13.1,26.75,325.9
"2010-06-23 01:36:30",225293,2.693,3.486,5.795,0.432,22.56,110.3967,25.91,26.74,23.13,0,111.3,13.1,26.76,325.5
"2010-06-23 01:37:00",225294,3.62,3.088,4.005,0.357,22.56,110.3945,25.91,26.74,23.07,0,111.3,13.1,26.75,325.1
"2010-06-23 01:37:30",225295,3.217,5.529,6.263,0.573,22.53,110.3859,25.89,26.74,22.98,0,111.3,13.1,26.73,327.5
"2010-06-23 01:38:00",225296,2.556,9.13,4.209,0.492,22.54,110.3831,25.88,26.73,22.66,0,111.3,13.1,26.72,331.1
"2010-06-23 01:38:30",225297,3.018,359.6,6.938,0.696,22.6,110.3815,25.87,26.74,21.84,0,111.3,13.1,26.72,321.6
"2010-06-23 01:39:00",225298,3.139,360,6.65,0.908,22.54,110.3801,25.87,26.74,21.38,0,111.3,13.1,26.71,322.0
"2010-06-23 01:39:30",225299,1.616,3.481,9.79,0.528,22.58,110.3827,25.88,26.76,21.39,0,111.3,13.1,26.72,325.5
"2010-06-23 01:40:00",225300,3.386,354.4,6.583,1.079,22.53,110.3841,25.88,26.74,19.9,0,111.3,13.1,26.72,316.4
"2010-06-23 01:40:30",225301,1.791,7.457,5.614,0.29,22.48,110.3894,25.9,26.74,21.45,0,111.3,13.1,26.74,329.5
"2010-06-23 01:41:00",225302,2.581,3.061,5.899,0.734,22.49,110.3928,25.9,26.75,20.84,0,111.3,13.1,26.75,325.1
"2010-06-23 01:41:30",225303,4.272,349.8,11.51,1.214,22.52,110.4001,25.92,26.76,16.12,0,111.3,13.1,26.77,311.8
"2010-06-23 01:42:00",225304,5.061,327.5,1.573,0.254,22.57,110.4071,25.94,26.76,10.15,0,111.3,13.1,26.78,289.5
"2010-06-23 01:42:30",225305,4.247,326.9,1.21,0.166,22.45,110.438,26.02,26.8,10.12,0,111.3,13.1,26.86,288.9
"2010-06-23 01:43:00",225306,4.399,326.5,2.711,0.274,22.47,110.4495,26.05,26.85,13.01,0,111.3,13.1,26.89,288.5
"2010-06-23 01:43:30",225307,4.035,324.1,5.157,0.161,22.36,110.4543,26.06,26.88,14.7,0,111.3,13.1,26.90,286.1
"2010-06-23 01:44:00",225308,3.555,328.9,5.599,0.4,22.45,110.4422,26.03,26.86,14.66,0,111.3,13.1,26.87,290.9
"2010-06-23 01:44:30",225309,3.629,333.7,10.65,1.009,22.48,110.4377,26.02,26.86,16.15,0,111.3,13.1,26.86,295.7
"2010-06-23 01:45:00",225310,4.737,305.2,4.124,0.715,22.73,110.4386,26.02,26.87,13.74,0,111.3,13.1,26.86,267.2
"2010-06-23 01:45:30",225311,3.009,307.9,8.01,0.549,22.66,110.4576,26.07,26.9,13.56,0,111.3,13.1,26.91,269.9
"2010-06-23 01:46:00",225312,3.264,323.8,10.33,0.583,22.48,110.4714,26.11,26.94,14.49,0,111.3,13.1,26.95,285.8
"2010-06-23 01:46:30",225313,3.953,340.4,8.08,0.668,22.5,110.4562,26.07,26.92,14.96,0,111.3,13.1,26.91,302.4
"2010-06-23 01:47:00",225314,4.901,347.6,3.419,0.462,22.48,110.4414,26.03,26.92,16.67,0,111.3,13.1,26.87,309.6
"2010-06-23 01:47:30",225315,5.035,347.4,7.354,0.584,22.51,110.4254,25.99,26.9,18.36,0,111.2,13.1,26.83,309.4
"2010-06-23 01:48:00",225316,5.811,334.4,5.857,0.357,22.74,110.4082,25.94,26.86,14.53,0,111.3,13.09,26.79,296.4
"2010-06-23 01:48:30",225317,4.947,323.4,8.02,0.832,22.8,110.4298,26,26.86,13.04,0,111.2,13.09,26.84,285.4